Back to catalog

STARLINK-32937

AliveCommunicationsVLEO
NORAD 63148·PAYLOAD·🇺🇸 United States

Launched Mar 3, 2025 from Cape Canaveral Space Force Station

Loading…

Next Passes (next 24 hours)

TLE

FreshSource: CelesTrak SupGP

Epoch: Sep 14, 2026, 14:06 UTC

1 63148C 25043S   26257.58798611 -.00033712  00000+0 -12217-2 0  2572
2 63148  43.0015  29.3758 0001112 269.2897  52.7039 15.27579048    14

Track STARLINK-32937 in real time with AllMySat

Download on the App Store